Кожым

Россия / Республика Коми     65°44′06″N   59°31′24″E
темп.,
°C
ветер,
м/с
пор.,
м/с
влажн.,
%
обл.,
%
осадки,
мм/ч
давл.,
гПа
погр.,
м
16 апреля, пт
пт1600:00−9з128629 0.0 1027152
03:00−9юз47845 0.0 1027313
06:00−9ююз71180100 0.0 1027408
09:00−4юз91387100 0.1 1025853
12:00−1зсз7107790 1.5 10231356
15:000зсз71272100 2.2 10231614
18:00−4ссз4780100 0.3 1024229
21:00−8всв1191100 0.3 102410
17 апреля, сб
сб1700:00−7вюв1186100 0.0 102274
03:00−5ююз1395100 0.3 1019193
06:00−4сз41090100 1.9 1018832
09:00−2зсз6884100 2.6 1016973
12:00−2ссз359291 1.9 1015510
15:00−3св898998 2.8 1016601
18:00−8ссв8118237 0.5 1021594
21:00−12св610824 0.5 1027337
18 апреля, вс
вс1800:00−13св47847 0.0 1031245
03:00−14св34855 0.0 1033148
06:00−12ссв23745 0.0 1036277
09:00−10ссз22551 0.0 1037543
12:00−6сз23455 0.0 10371150
15:00−4сз244889 0.0 10371419
18:00−6с357331 0.0 1038269
21:00−9с12895 0.0 103884
19 апреля, пн
пн1900:00−10ююз22905 0.0 103851
03:00−9ююз468797 0.0 1038191
06:00−7юз697679 0.0 1037387
09:00−3юз9126595 0.0 1035714
12:000юз101459100 0.0 10321034
15:00+2зюз91358100 0.0 10301072
18:00+2зюз71364100 0.0 1029569
21:00+1зюз71278100 0.2 1028458
20 апреля, вт
вт2000:00+1юз7128188 0.0 1027400
03:00+1юз7128367 0.0 1027438
06:00+1юз7128478 0.0 1027632
09:00+3зюз71183100 0.0 1027875
12:00+5зюз797598 0.0 10281022
15:00+6зюз687586 0.0 1028908
18:00+3юз458934 0.0 102980
21:00+1юз339372 0.0 103038